Theta_e
336 335 334 333 332 331 329 326 327 326 323 319 318 318 319 319 320 321 322 321 321 320 319 320 319 319 319 318 320 317 319 319 316 319 319 319 317 317 317 317 318 317 317
331 331 331 331 331 332 330 328 326 323 324 325 325 324 324 324 324 323 321 318 316 312 308 308 307 312 310 310 310 309 311 313 318 316 318 319 318 317 317 317 316 314 312
332 329 329 328 328 327 326 326 325 324 323 322 322 322 322 320 320 319 316 313 309 309 309 309 308 308 308 307 307 308 308 309 310 311 311 309 309 309 309 309 308 309 308
330 327 325 325 324 324 324 323 318 316 315 313 313 316 316 315 314 316 316 314 312 309 308 309 309 308 308 308 308 307 306 308 309 308 308 308 308 307 306 307 306 308 308
328 328 327 326 324 321 319 317 315 314 312 310 309 311 312 313 313 312 312 314 313 309 306 305 309 310 310 309 307 307 307 307 307 308 308 308 308 308 308 307 307 307 306
327 327 326 325 323 320 317 315 313 311 309 307 308 309 310 310 311 311 311 310 309 308 305 302 303 307 309 309 309 307 308 307 308 308 309 308 307 307 307 307 307 307 306
326 324 323 322 319 317 315 314 313 310 308 307 308 309 309 310 309 309 309 309 308 306 303 302 302 305 307 307 307 309 308 308 308 308 308 308 307 306 307 307 307 308 307
322 318 317 316 316 316 316 315 312 310 308 307 307 306 306 306 309 310 307 307 308 305 303 303 303 304 306 305 307 308 307 307 307 307 309 308 307 307 307 307 307 307 307
319 319 318 318 317 318 318 317 314 312 311 309 307 305 304 304 305 308 310 307 305 304 304 304 304 304 304 305 306 306 306 307 307 308 308 307 308 308 308 308 308 308 306
323 323 321 321 320 319 317 315 314 312 312 310 307 304 305 307 306 305 306 311 306 306 307 305 305 305 304 304 305 305 306 306 307 309 308 308 307 307 308 308 308 307 307
317 320 321 319 319 318 316 314 313 312 312 312 312 311 308 308 308 307 307 305 307 307 308 307 307 306 305 305 305 304 305 306 307 307 308 308 307 308 308 307 308 308 307
319 320 320 319 318 316 315 314 312 311 311 311 311 309 308 308 308 308 307 307 307 307 306 306 306 307 306 306 305 305 307 307 307 307 307 308 308 308 308 308 308 308 308
320 319 319 318 317 316 315 315 314 313 313 313 313 313 312 308 308 307 308 307 307 307 305 306 306 307 307 306 306 306 307 307 307 307 307 307 308 307 308 308 307 308 307
316 318 317 316 316 315 315 315 313 313 312 312 311 310 310 309 307 306 306 306 305 305 305 307 307 307 307 306 306 305 305 307 307 307 307 307 305 307 307 308 308 307 308
319 317 315 316 314 314 313 309 307 307 307 307 307 307 309 308 306 305 305 306 305 304 307 307 306 305 305 305 305 305 305 306 307 307 307 306 306 307 307 307 307 307 306
318 318 316 317 311 308 308 308 308 307 307 305 307 306 305 304 303 304 305 305 305 306 306 306 305 304 305 305 304 304 304 306 307 306 306 306 307 307 307 307 307 306 306
320 318 315 315 313 313 313 312 310 308 307 306 307 305 305 304 304 305 305 306 306 306 306 305 304 304 304 304 304 305 305 305 306 306 306 306 307 307 307 307 307 306 304
318 315 313 314 313 312 312 312 314 310 309 308 308 306 305 304 304 305 306 305 305 305 304 304 304 305 305 305 304 304 305 305 305 305 306 306 306 307 307 307 307 306 305
317 313 314 313 312 311 312 311 311 311 312 312 310 307 307 305 304 305 305 305 304 304 304 304 304 305 304 304 303 303 304 305 304 304 305 305 306 307 307 308 308 308 306
314 315 314 313 312 311 312 311 311 312 313 311 305 302 304 305 305 305 306 305 305 304 304 304 305 304 304 303 303 303 304 303 303 302 303 303 304 305 306 307 308 308 307
313 313 312 312 313 312 312 312 309 309 308 305 304 304 304 305 305 304 304 304 304 304 304 304 305 304 303 303 303 303 303 301 300 301 301 302 304 305 306 307 308 308 308
314 311 311 311 312 312 309 308 307 306 307 306 305 305 305 305 305 305 304 304 304 304 304 304 303 303 303 303 302 301 300 299 299 300 301 302 304 304 305 306 307 307 308
314 313 313 311 310 308 307 307 305 305 306 306 306 305 305 305 305 305 305 305 304 304 304 303 303 303 302 301 301 300 296 296 297 300 301 303 303 304 304 305 305 306 306
313 312 311 308 307 307 308 306 305 304 305 305 305 305 305 305 305 305 305 304 304 304 303 303 302 301 301 301 296 294 295 296 298 300 302 302 303 304 304 303 305 304 304
312 311 309 309 308 307 307 306 305 303 305 305 305 305 305 305 305 304 304 304 304 303 302 301 300 300 298 294 294 295 296 297 299 301 302 303 303 303 302 302 304 303 303
311 311 310 309 309 308 307 307 306 306 305 305 305 305 304 304 304 304 304 303 303 302 302 300 299 299 297 296 296 295 297 298 300 301 302 303 302 300 301 301 302 301 302
Wind_Speed
16 15 17 22 24 25 30 30 27 25 24 25 24 24 23 22 21 20 19 19 21 19 18 18 17 14 16 16 13 14 11 6 0 3 4 3 4 5 5 7 8 10 11
27 26 25 25 24 24 24 24 24 24 22 20 17 20 17 16 15 15 21 17 17 18 19 20 20 20 20 19 18 21 21 20 5 6 4 2 4 8 11 9 10 12 13
22 21 19 21 24 25 25 23 22 21 20 17 18 18 19 20 18 17 18 22 21 20 20 22 24 22 21 22 22 22 19 19 24 24 21 25 22 20 18 15 17 15 14
22 22 23 23 23 23 22 21 20 19 19 19 18 19 21 21 23 20 15 15 18 19 18 17 16 18 19 17 20 22 23 22 24 22 19 19 20 22 21 22 22 19 19
22 22 22 22 21 22 23 21 18 16 15 14 16 21 24 22 19 19 21 21 17 18 19 16 15 11 12 12 13 19 22 23 23 21 20 19 21 20 22 19 20 21 22
21 21 20 22 21 22 22 20 18 17 15 16 19 22 22 20 16 14 13 16 15 13 15 15 15 14 16 14 9 9 14 18 18 17 14 13 14 16 16 17 17 20 8
23 20 21 22 22 21 20 18 15 16 15 17 18 17 19 17 13 11 11 14 15 16 16 14 15 15 18 18 18 13 13 14 14 14 13 12 10 14 16 19 19 18 18
21 22 23 22 22 20 17 16 15 13 15 14 13 11 13 13 9 3 8 12 13 12 14 16 19 18 16 16 17 16 13 12 12 12 11 10 8 10 13 15 16 18 22
21 20 18 18 17 16 12 13 13 13 13 11 9 9 10 11 13 18 8 8 12 13 15 15 16 16 17 16 14 16 16 13 14 10 11 10 12 13 13 17 18 18 11
19 17 15 14 13 16 15 12 12 12 11 9 8 10 11 12 13 13 16 10 9 9 9 9 11 12 11 10 11 12 15 14 16 12 14 14 15 15 12 13 15 16 11
17 15 14 16 15 13 12 11 11 12 10 9 7 5 5 8 10 12 12 12 11 6 3 7 8 11 11 5 7 8 11 12 13 14 13 18 16 15 17 18 16 11 15
14 15 14 15 11 9 10 10 9 8 7 7 8 8 4 2 5 8 9 9 9 9 9 9 10 11 13 3 5 8 11 11 14 16 16 16 19 19 18 21 15 16 12
14 13 18 14 11 11 8 7 4 7 8 8 13 14 11 2 4 4 5 6 6 7 8 5 6 13 7 8 12 11 12 12 15 14 16 15 15 17 17 20 18 16 12
12 16 18 12 13 11 7 11 11 10 13 11 10 11 11 7 3 3 4 3 4 4 3 4 10 16 9 5 6 11 12 13 15 14 15 16 19 16 20 22 16 17 13
9 13 14 15 15 15 13 11 8 10 7 8 8 4 5 3 5 5 4 3 6 7 6 6 10 13 14 12 10 12 11 14 16 14 15 16 16 20 20 22 17 15 15
14 12 12 13 15 13 11 10 8 5 5 5 7 7 7 6 5 3 3 6 7 6 7 10 11 9 9 9 9 11 12 16 15 14 15 17 14 16 19 20 17 16 14
13 8 12 18 16 12 10 6 8 5 4 4 6 7 8 9 7 7 8 7 8 8 7 8 7 4 8 7 9 12 13 16 15 13 15 17 17 17 17 18 18 11 13
12 11 10 15 13 8 7 6 12 8 7 5 5 3 3 6 8 7 7 7 7 7 6 4 4 6 10 10 10 11 10 15 15 18 17 18 19 20 20 21 18 9 11
14 9 8 11 7 7 5 7 7 7 9 9 6 3 5 3 2 4 4 3 4 4 2 8 2 6 8 10 12 13 14 14 14 16 18 17 19 23 27 24 20 15 6
10 9 6 6 6 5 8 11 10 7 10 15 5 3 3 4 7 6 5 2 5 1 3 7 10 9 10 10 9 9 10 14 14 15 16 15 19 22 25 25 21 17 5
10 9 8 6 9 10 16 4 4 13 18 12 10 7 6 8 11 8 7 7 5 3 8 16 13 12 12 12 10 7 8 12 13 13 16 15 17 22 25 23 22 15 13
12 11 9 10 6 9 9 5 3 10 12 11 10 8 5 4 8 8 6 3 2 7 6 10 13 12 12 9 6 6 10 11 12 12 15 14 16 20 22 22 17 15 13
6 7 6 11 7 5 5 1 8 9 10 8 8 5 4 8 8 6 6 3 4 4 5 4 7 8 7 7 8 10 11 10 10 10 13 14 16 20 22 23 19 13 15
7 10 16 10 8 6 4 3 2 4 8 9 6 5 4 4 5 6 4 4 4 5 4 6 6 4 3 6 8 8 10 10 8 9 11 14 15 18 21 24 14 12 15
11 9 16 14 7 5 8 7 8 9 11 9 7 6 5 7 7 4 4 3 5 4 6 5 3 2 6 8 9 9 11 10 9 10 13 14 16 14 19 21 12 14 15
11 12 17 14 10 9 10 8 15 11 11 9 8 7 5 7 7 5 7 5 3 4 4 4 2 2 8 8 9 9 10 10 11 12 13 12 13 16 20 15 16 20 16
Wind_Direction
87 84 85 86 89 91 93 94 89 89 91 89 89 89 86 87 85 82 77 75 73 68 65 63 59 53 52 49 48 43 27 12 329 333 297 316 295 320 322 328 345 345 347
95 97 96 100 98 97 96 100 99 94 88 86 85 79 76 79 78 94 99 84 71 66 66 64 62 64 56 51 47 42 44 39 351 330 307 28 6 12 358 357 354 355 352
105 103 99 98 99 101 100 98 97 92 91 85 90 91 84 80 88 93 84 78 80 74 72 65 58 59 56 53 50 47 45 47 52 56 57 57 49 35 26 21 14 7 3
107 100 98 101 99 99 99 100 97 93 89 85 82 80 84 82 78 82 84 86 90 79 69 62 57 50 46 48 50 47 44 52 54 52 48 38 34 26 22 15 0 1 351
118 114 112 111 107 103 102 101 98 92 88 89 85 83 82 82 78 77 80 91 101 86 66 56 54 53 42 42 52 55 50 45 42 45 41 33 24 16 10 359 1 350 345
118 115 125 119 114 106 103 98 91 82 83 89 91 88 82 77 78 86 81 86 89 78 70 59 56 55 48 54 62 59 44 41 46 39 32 23 14 8 4 1 2 351 342
123 122 121 118 114 111 107 101 91 99 100 97 92 87 86 80 71 88 89 91 81 75 68 58 57 60 59 57 60 67 62 47 38 28 16 10 3 9 4 5 1 354 340
121 120 119 119 118 114 106 104 113 109 105 101 90 89 82 72 68 73 110 104 99 79 65 65 61 59 53 48 54 55 44 34 31 13 6 359 355 3 8 9 360 349 350
121 124 122 123 119 113 114 125 123 119 107 94 100 95 80 71 63 65 180 128 118 92 68 69 58 52 47 52 50 36 35 37 37 32 18 23 18 11 0 359 358 350 345
135 131 131 132 129 131 134 135 134 134 135 134 126 103 91 80 70 59 73 155 155 132 79 61 44 37 34 26 38 35 27 19 18 24 29 27 24 15 359 348 345 351 338
132 129 131 129 130 140 142 141 155 157 159 161 154 143 118 80 81 68 60 65 66 201 277 7 14 5 14 9 9 16 17 11 16 26 22 21 17 12 10 360 353 328 339
138 137 140 138 147 150 140 152 166 178 179 190 190 187 166 130 88 69 57 42 39 43 37 18 349 354 354 26 45 32 33 27 20 20 20 13 9 9 6 4 9 5 354
155 153 153 146 148 138 141 163 187 239 249 219 227 225 203 163 77 61 37 64 32 19 20 3 353 9 61 102 62 47 36 23 19 10 7 6 6 9 7 6 15 14 18
132 130 134 142 130 130 154 156 135 116 116 114 134 156 171 152 106 29 26 20 16 358 358 26 43 50 85 27 45 35 32 34 19 14 10 19 11 8 9 10 8 14 4
168 153 140 144 143 138 133 127 107 94 87 93 104 92 137 258 318 346 1 21 30 25 37 58 47 37 32 33 42 37 29 28 19 16 7 12 9 16 10 11 18 8 16
167 175 166 168 149 144 130 125 118 107 105 98 96 62 39 9 354 9 82 68 53 64 76 62 35 34 35 32 34 27 22 26 16 17 15 15 4 3 9 12 11 12 14
179 174 131 152 165 160 168 163 178 173 169 141 107 77 68 45 52 77 78 76 84 58 66 66 30 31 17 37 31 27 25 23 24 24 22 17 4 358 2 5 7 6 17
180 170 137 149 163 154 158 210 216 193 195 177 164 146 98 71 65 83 71 61 72 60 39 66 353 6 85 71 39 20 22 20 24 27 26 17 16 13 4 358 3 351 5
162 166 146 148 157 175 206 172 197 226 217 186 158 206 236 235 173 132 116 101 84 52 336 328 11 77 76 64 29 27 32 31 24 21 20 18 13 7 9 6 357 3 340
167 169 153 164 197 216 230 231 239 239 144 146 145 216 179 258 258 238 259 13 156 119 319 326 330 126 80 55 43 31 31 17 13 16 14 14 10 4 359 4 2 356 329
181 186 172 205 222 226 244 192 115 135 142 127 82 99 88 91 118 100 95 83 117 51 19 21 109 99 65 42 40 55 20 12 8 7 9 6 6 3 2 3 13 6 0
206 192 183 222 208 176 113 110 93 123 149 139 129 128 126 102 139 122 114 102 89 86 47 52 76 69 44 46 42 52 9 0 6 6 7 5 360 4 360 3 8 13 11
202 222 170 137 138 139 157 64 112 133 125 154 177 189 130 117 105 126 113 116 116 92 72 62 41 40 42 48 8 358 1 359 2 4 5 1 3 359 354 354 352 5 18
262 311 160 125 125 156 207 157 251 136 150 143 128 115 124 136 134 129 124 116 104 102 98 98 73 72 26 352 352 6 8 9 6 6 2 0 6 5 7 3 22 10 13
247 273 154 150 176 190 163 191 187 167 144 138 151 173 190 181 147 145 142 134 142 103 134 75 97 17 4 14 24 23 18 19 15 6 7 8 7 7 3 3 20 30 28
263 210 177 170 162 208 200 200 172 177 180 178 186 186 179 178 159 158 171 157 121 138 144 112 152 338 8 21 27 26 26 29 25 18 15 13 27 18 10 21 25 16 5